User: anonymous   Login
Location: Mount Kobau Star Party
(49.1167°N, 119.7333°W)
Time: 11:57:20
(UTC-07:00)
Language:

TSX-5 - Orbit

View from above orbital plane
View from above orbital plane
View from above satellite
View from above satellite

Ground track
Ground track

The orbit data is extracted from the following two-line orbital elements,

1 26374U 00030A   14298.15124900  .00015810  00000-0  13657-2 0  4388
2 26374 068.9363 207.4094 0695650 286.1772 177.9693 13.94673462720746
Epoch (UTC): 25 October 2014 03:37:47
Eccentricity: 0.0695650
inclination: 68.9363°
perigee height: 405 km
apogee height: 1419 km
right ascension of ascending node: 207.4094°
argument of perigee: 286.1772°
revolutions per day: 13.94673462
mean anomaly at epoch: 177.9693°
orbit number at epoch: 72074

The dashed part of the orbit path shows where the satellite is in the earth's shadow,  

DLR